Weather past 2 weeks in Willemstad, Curaçao

Now
82 °F

Passing clouds.


Feels Like: 89 °F
Forecast: N/A
Wind: 14 mph from East

Location: Hato Airport - Curacao

Current Time: Jul 29, 2014 at 7:35:21 PM

Latest Report: Jul 29, 2014 at 7:00 PM


Visibility: N/A

Pressure: 29.92 "Hg

Humidity: 79%

Dew point: 75 °F

Location of WillemstadLocation

Historic Weather in Willemstad — Graph

°F

Willemstad temperature yesterday

Maximum temperature yesterday: 90 °F (at 1:00 PM)
Minimum temperature yesterday: 81 °F (at 12:00 AM)
Average temperature yesterday: 84 °F

Past Weeks' High & Low Weather Summary

 TemperatureHumidityPressure
High91 °F (Jul 18, 12:00 PM)94% (Jul 15, 6:00 AM)30.04 "Hg (Jul 15, 6:00 AM)
Low77 °F (Jul 15, 6:00 AM)52% (Jul 18, 12:00 PM)29.86 "Hg (Jul 24, 4:00 PM)
Average83 °F78%29.96 "Hg
* Reported Jul 14 6:00 PM — Jul 29 6:00 PM, Willemstad, Weather by CustomWeather, © 2014

Note: Actual official high and low records may vary slightly from our data, if they occured in-between our weather recording intervals... More about our weather records

Advertising

Willemstad weather history for previous 24 hours

 ConditionsComfort  
Time TempWeatherWind HumidityBarometerVisibility
6:00 PM
Jul 29
84 °FPassing clouds.15 mph79%29.89 "HgN/A
5:00 PM86 °FPassing clouds.14 mph75%29.86 "HgN/A
4:00 PM86 °FScattered clouds.17 mph70%29.89 "HgN/A
3:00 PM88 °FScattered clouds.15 mph66%29.92 "HgN/A
2:00 PM88 °FScattered clouds.15 mph70%29.95 "HgN/A
1:00 PM86 °FScattered clouds.16 mph75%29.95 "HgN/A
12:00 PM86 °FScattered clouds.14 mph75%29.98 "HgN/A
11:00 AM84 °FScattered clouds.17 mph74%29.98 "HgN/A
10:00 AM86 °FScattered clouds.16 mph70%29.98 "HgN/A
9:00 AM84 °FScattered clouds.17 mph74%29.98 "HgN/A
8:00 AM84 °FScattered clouds.15 mph74%29.98 "HgN/A
7:00 AM81 °FScattered clouds.13 mph84%29.98 "HgN/A
6:00 AM81 °FPassing clouds.9 mph84%29.95 "HgN/A
5:00 AM81 °FPassing clouds.10 mph84%29.95 "HgN/A
4:00 AM81 °FPassing clouds.9 mph84%29.95 "HgN/A
3:00 AM81 °FPassing clouds.12 mph84%29.95 "HgN/A
2:00 AM81 °FPassing clouds.8 mph84%29.98 "HgN/A
1:00 AM81 °FPassing clouds.9 mph84%29.98 "HgN/A
12:00 AM81 °FPassing clouds.12 mph84%30.01 "HgN/A
11:00 PM
Jul 28
81 °FPassing clouds.10 mph89%30.01 "HgN/A
10:00 PM81 °FPassing clouds.12 mph89%29.98 "HgN/A
9:00 PM82 °FPassing clouds.13 mph84%29.98 "HgN/A
8:00 PM82 °FPassing clouds.10 mph84%29.95 "HgN/A
7:00 PM82 °FPassing clouds.10 mph84%29.95 "HgN/A
Weather by CustomWeather, © 2014

See weather overviewHow to use our weather pages